THORAD AGENA D DEB

Satellite information

Favourite Embed

Satellite Type and Status

DEBRISIN ORBIT

Key statistics

Satellite THORAD AGENA D DEB at a glance.

Uptime

20293

Days in orbit

Revolutions

≈ 14.0

Per day

Orbit

SSO

Sun Synchronous Orbit

Inclination

99.9

Latest

Satellite identification and parameters

Extended collection of information and parameters for THORAD AGENA D DEB.

Object identification

Identified? True

Debris? True

Object name: THORAD AGENA D DEB

International designator: 1970-025SN

Object number (NORAD): 42532

Object ID (CCSDS): 42532

Country: UNITED STATES OF AMERICA (US)

Current information (Y/N): Y

RCS size: SMALL

Orbital parameters

Period: 102.725 minutes

Inclination: 99.9268 deg

SMA: 7265.716 km

Apoapsis: 889.192 km

Periapsis: 885.971 km

RAAN: 217.1627 deg

Eccentricy: 0.00022166

Argument of periapsis: 338.3944 deg

Mean anomaly: 21.7124 deg

Mean motion: 14.01796892 rev/day

Mean motion (dot): 0.00002765 rev/day2

B* drag term: 0.0018532258 1/REarth

Two-line elements (TLE)

Creation date: Oct. 28, 2025, 7:11 p.m.

Reference frame: TEME

Reference center: EARTH

Epoch: Oct. 28, 2025, 12:11 p.m. UTC

TLE line 0: 0 THORAD AGENA D DEB

TLE line 1: 1 42532U 70025SN 25301.50800484 .00002765 00000-0 18532-2 0 9991

TLE line 2: 2 42532 99.9268 217.1627 0002217 338.3944 21.7124 14.01796892607202

Live tracking on map

Real-time ground track for satellite THORAD AGENA D DEB.

In-orbit conjunctions

A list of the most updated potential collisions computed for object THORAD AGENA D DEB.

Target Orbit TCA Probability of collision Miss distance Type
COSMOS 1275 DEB LEO 2025-05-19 03:24:31 0.000109495 132.0 (m) DEBRIS
FENGYUN 1C DEB SSO 2024-11-10 19:25:34 0.0001528715 631.0 (m) DEBRIS
SL-16 DEB LEO 2024-11-07 11:55:53 0.0001140594 245.0 (m) DEBRIS

Associated space launch

Meteorological research and development satellite

THORAD AGENA D DEB was lifted into orbit during the mission ‘Thorad SLV-2G Agena D | Nimbus 4’, on board a Thorad SLV-2G Agena D space rocket.

The launch took place on April 8, 1970, 8:17 a.m. from Space Launch Complex 2E.

For more information about the launch, click the button.

Launch to space Thorad SLV-2G Agena D | Nimbus 4
Thorad SLV-2G Agena D | Nimbus 4

Agency: N/A

Status: Launch Successful

Launch date: April 8, 1970, 8:17 a.m. UTC

Rocket: Thorad SLV-2G Agena D

Launch pad: Space Launch Complex 2E

Location: Vandenberg SFB, CA, USA

...

Latest news about this satellite

There are no fresh news available about this satellite. Check back as we update our databases every day.


Newsletter sign-up

Weekly statistics, charts and insights to help you stay on top of the space industry.